Temp
-11 -11 -11 -11 -11 -11 -11 -11 -10 -11 -11 -11 -11 -10 -10 -10 -10 -10 -10 -10 -10 -10 -10 -11 -11 -11 -11 -11 -11 -11 -11 -12 -12 -12 -12 -12 -12 -12 -12 -12 -12 -12 -12 -12 -12 -12 -12
-11 -11 -11 -11 -11 -11 -11 -11 -11 -10 -11 -11 -11 -11 -10 -10 -10 -10 -10 -10 -10 -10 -10 -10 -11 -11 -11 -11 -11 -11 -11 -11 -12 -12 -12 -12 -12 -12 -12 -12 -12 -12 -12 -12 -12 -12 -12
-11 -11 -11 -11 -11 -11 -11 -11 -11 -11 -11 -11 -10 -11 -11 -11 -10 -10 -10 -10 -10 -10 -10 -10 -11 -11 -11 -11 -11 -11 -11 -11 -11 -11 -12 -12 -12 -12 -12 -12 -12 -12 -12 -12 -12 -12 -12
-11 -11 -11 -11 -11 -11 -11 -11 -11 -11 -11 -11 -11 -11 -10 -10 -10 -11 -11 -10 -10 -10 -10 -10 -10 -10 -11 -11 -11 -11 -11 -11 -11 -11 -12 -12 -12 -12 -12 -12 -12 -12 -12 -12 -12 -12 -12
-11 -11 -11 -11 -11 -11 -11 -11 -11 -11 -11 -11 -11 -11 -11 -11 -11 -11 -11 -11 -11 -10 -10 -10 -10 -10 -10 -11 -11 -11 -11 -11 -11 -11 -12 -12 -12 -12 -12 -12 -12 -12 -12 -12 -12 -12 -12
-12 -12 -11 -11 -12 -12 -12 -12 -11 -11 -11 -11 -11 -11 -11 -11 -11 -11 -11 -11 -11 -11 -11 -10 -10 -10 -10 -11 -11 -11 -11 -11 -11 -11 -12 -12 -12 -12 -12 -12 -12 -12 -12 -12 -12 -12 -12
-12 -12 -12 -12 -12 -12 -12 -12 -12 -11 -11 -11 -11 -11 -11 -11 -11 -11 -11 -11 -11 -11 -10 -11 -10 -10 -11 -11 -11 -11 -11 -11 -11 -11 -11 -12 -12 -12 -12 -12 -12 -12 -12 -12 -12 -12 -12
-12 -12 -12 -12 -12 -12 -12 -12 -12 -12 -11 -11 -11 -11 -11 -11 -11 -11 -11 -11 -10 -11 -11 -11 -11 -11 -11 -11 -11 -11 -12 -12 -12 -12 -12 -12 -12 -12 -12 -12 -12 -13 -13 -13 -13 -13 -13
-12 -12 -12 -12 -12 -12 -12 -12 -12 -12 -12 -11 -11 -11 -11 -11 -11 -11 -11 -11 -11 -11 -11 -11 -11 -11 -11 -11 -11 -11 -12 -12 -12 -12 -12 -12 -12 -12 -13 -13 -13 -13 -13 -13 -13 -13 -13
-12 -12 -12 -12 -12 -12 -12 -12 -12 -12 -12 -12 -12 -11 -11 -11 -11 -11 -11 -11 -11 -11 -11 -11 -11 -11 -11 -11 -11 -11 -12 -12 -12 -12 -12 -13 -13 -13 -13 -13 -13 -13 -13 -13 -13 -13 -13
-12 -12 -12 -12 -12 -13 -12 -12 -12 -12 -12 -12 -12 -12 -12 -12 -12 -12 -12 -12 -11 -11 -11 -11 -11 -11 -11 -11 -11 -12 -12 -12 -12 -13 -13 -13 -13 -14 -14 -14 -14 -14 -14 -14 -14 -14 -13
-13 -13 -12 -12 -12 -13 -12 -13 -12 -12 -12 -12 -12 -12 -12 -12 -12 -12 -12 -12 -12 -12 -12 -12 -12 -12 -12 -11 -11 -12 -12 -13 -13 -13 -13 -14 -14 -14 -15 -15 -15 -15 -15 -14 -14 -14 -14
-13 -13 -13 -13 -13 -12 -13 -13 -12 -13 -12 -12 -12 -12 -12 -12 -12 -13 -13 -13 -12 -12 -12 -12 -12 -12 -12 -12 -12 -12 -13 -13 -13 -14 -14 -14 -15 -15 -15 -15 -15 -15 -15 -15 -14 -14 -14
-14 -13 -13 -13 -13 -13 -13 -13 -13 -13 -13 -12 -13 -13 -13 -13 -13 -13 -13 -13 -13 -13 -13 -13 -13 -13 -13 -13 -13 -13 -14 -14 -14 -14 -15 -15 -15 -15 -15 -15 -15 -15 -16 -16 -15 -15 -15
-14 -13 -13 -14 -14 -13 -13 -13 -13 -13 -13 -13 -13 -13 -13 -13 -13 -14 -14 -14 -13 -14 -14 -14 -14 -14 -14 -14 -14 -15 -15 -15 -15 -15 -15 -15 -16 -16 -16 -16 -16 -16 -16 -17 -16 -16 -16
-14 -13 -14 -13 -14 -14 -13 -14 -13 -13 -13 -13 -13 -13 -13 -14 -14 -14 -14 -14 -14 -14 -14 -14 -14 -14 -15 -15 -15 -15 -15 -15 -16 -16 -16 -16 -16 -16 -16 -16 -17 -17 -17 -17 -17 -17 -17
-14 -15 -14 -14 -14 -14 -14 -14 -13 -13 -14 -14 -14 -14 -14 -14 -14 -14 -15 -15 -15 -15 -15 -15 -15 -15 -15 -16 -16 -16 -16 -16 -16 -16 -16 -16 -17 -17 -17 -17 -17 -17 -17 -18 -18 -18 -18
-16 -15 -15 -15 -15 -14 -14 -14 -14 -14 -14 -15 -15 -15 -15 -15 -15 -15 -15 -15 -16 -16 -16 -16 -16 -16 -16 -16 -17 -17 -17 -17 -17 -17 -17 -17 -17 -17 -17 -17 -17 -17 -18 -18 -18 -18 -18
-17 -17 -15 -15 -15 -14 -14 -14 -14 -15 -15 -15 -15 -15 -15 -15 -15 -16 -16 -16 -16 -17 -17 -17 -17 -17 -17 -17 -17 -17 -17 -17 -17 -17 -17 -17 -17 -17 -17 -17 -17 -17 -18 -18 -18 -19 -19
-17 -17 -15 -15 -15 -15 -15 -15 -15 -15 -15 -15 -15 -15 -15 -15 -16 -16 -16 -17 -17 -18 -18 -17 -17 -17 -17 -17 -17 -17 -18 -18 -18 -18 -18 -17 -18 -18 -17 -18 -17 -17 -18 -18 -19 -19 -19
-17 -17 -16 -16 -15 -15 -15 -15 -15 -15 -15 -15 -16 -16 -16 -16 -16 -16 -16 -18 -18 -18 -18 -18 -17 -18 -17 -17 -18 -18 -18 -18 -18 -18 -18 -18 -18 -18 -18 -18 -18 -18 -18 -19 -20 -20 -20
-16 -16 -17 -16 -15 -15 -15 -15 -15 -16 -16 -16 -16 -16 -16 -16 -17 -17 -18 -18 -18 -18 -18 -18 -18 -18 -18 -18 -18 -18 -18 -18 -18 -19 -19 -18 -18 -18 -18 -19 -19 -18 -19 -20 -21 -21 -21
-16 -16 -17 -16 -16 -16 -16 -16 -16 -16 -16 -16 -16 -16 -16 -17 -17 -18 -19 -19 -18 -18 -19 -18 -18 -18 -18 -18 -18 -19 -19 -19 -19 -19 -19 -19 -19 -19 -18 -19 -19 -19 -20 -20 -21 -21 -22
-17 -16 -17 -17 -16 -16 -16 -16 -16 -16 -16 -16 -16 -16 -17 -17 -18 -19 -19 -19 -20 -19 -18 -18 -18 -18 -19 -19 -19 -19 -19 -19 -19 -19 -19 -20 -20 -20 -20 -20 -20 -20 -20 -21 -21 -21 -22
-17 -17 -17 -17 -17 -16 -16 -16 -16 -16 -16 -16 -17 -18 -20 -20 -20 -20 -19 -19 -18 -18 -19 -19 -19 -19 -19 -20 -20 -20 -20 -20 -20 -19 -20 -20 -21 -21 -21 -21 -21 -21 -21 -22 -22 -21 -22
-17 -17 -18 -17 -17 -17 -17 -17 -16 -16 -19 -20 -20 -20 -20 -20 -19 -19 -19 -19 -19 -19 -19 -19 -19 -19 -20 -20 -20 -20 -20 -20 -19 -19 -20 -21 -21 -22 -22 -22 -22 -21 -22 -22 -22 -22 -22
-18 -17 -18 -18 -18 -18 -19 -19 -19 -20 -21 -21 -21 -21 -20 -20 -19 -19 -19 -19 -19 -19 -19 -20 -20 -20 -20 -21 -20 -20 -20 -20 -20 -20 -21 -22 -22 -22 -23 -23 -22 -22 -23 -23 -23 -23 -23
-19 -19 -18 -19 -19 -19 -20 -20 -21 -21 -21 -21 -20 -20 -19 -19 -19 -19 -19 -19 -19 -19 -20 -20 -20 -21 -21 -21 -21 -21 -20 -21 -21 -21 -22 -22 -23 -23 -23 -23 -23 -24 -24 -24 -24 -24 -24
-20 -20 -20 -19 -20 -22 -22 -21 -21 -21 -20 -20 -20 -19 -19 -19 -19 -19 -19 -19 -19 -20 -20 -20 -21 -21 -21 -21 -21 -21 -21 -21 -22 -22 -22 -22 -23 -23 -24 -24 -25 -25 -25 -24 -24 -24 -25
Height
5811 5812 5813 5815 5816 5817 5818 5818 5818 5819 5819 5819 5819 5818 5818 5818 5818 5818 5817 5816 5815 5813 5812 5811 5810 5809 5808 5807 5806 5805 5804 5804 5804 5805 5805 5805 5805 5806 5806 5806 5807 5808 5809 5810 5811 5812 5813
5807 5808 5810 5811 5813 5814 5815 5815 5815 5816 5817 5818 5817 5817 5817 5816 5816 5816 5815 5814 5813 5812 5811 5810 5809 5808 5808 5807 5806 5805 5804 5803 5802 5802 5802 5803 5803 5804 5804 5804 5805 5805 5806 5807 5808 5809 5809
5802 5804 5806 5807 5809 5810 5811 5812 5812 5813 5813 5814 5815 5815 5815 5815 5814 5814 5813 5813 5812 5811 5809 5808 5807 5806 5806 5806 5804 5803 5803 5802 5801 5800 5800 5800 5800 5801 5801 5801 5801 5802 5802 5802 5803 5804 5804
5797 5799 5801 5803 5804 5805 5807 5808 5808 5809 5810 5811 5812 5812 5812 5812 5812 5812 5811 5811 5810 5809 5808 5807 5805 5804 5803 5802 5801 5800 5800 5800 5799 5798 5798 5797 5797 5797 5797 5797 5798 5798 5799 5798 5798 5798 5799
5791 5793 5795 5797 5799 5800 5802 5803 5804 5805 5806 5807 5808 5808 5809 5809 5809 5809 5809 5808 5808 5807 5806 5805 5803 5802 5800 5798 5797 5797 5796 5796 5795 5794 5794 5794 5793 5793 5793 5792 5793 5793 5793 5792 5792 5792 5792
5784 5786 5789 5791 5794 5795 5797 5799 5800 5801 5802 5803 5804 5804 5805 5805 5805 5805 5805 5805 5805 5804 5803 5802 5800 5800 5796 5795 5793 5792 5791 5790 5790 5789 5789 5789 5789 5788 5788 5788 5789 5787 5787 5786 5785 5786 5786
5775 5779 5782 5785 5787 5789 5791 5793 5795 5796 5797 5798 5799 5800 5800 5801 5801 5801 5802 5802 5803 5802 5799 5798 5797 5795 5792 5790 5788 5787 5786 5785 5784 5784 5783 5783 5783 5783 5782 5782 5782 5782 5781 5780 5778 5779 5780
5767 5771 5774 5778 5781 5783 5785 5787 5789 5790 5792 5793 5794 5795 5795 5795 5796 5796 5797 5796 5796 5797 5795 5793 5791 5789 5787 5784 5783 5782 5781 5781 5779 5778 5778 5778 5777 5776 5776 5775 5775 5774 5774 5773 5772 5770 5769
5758 5762 5766 5770 5773 5776 5778 5780 5782 5784 5786 5787 5788 5789 5789 5790 5790 5791 5791 5791 5790 5789 5789 5788 5786 5784 5782 5780 5777 5776 5775 5774 5773 5772 5772 5771 5771 5769 5769 5768 5767 5766 5765 5764 5763 5761 5761
5747 5753 5756 5761 5765 5768 5771 5773 5775 5777 5778 5780 5782 5782 5783 5783 5785 5785 5785 5784 5784 5783 5782 5783 5781 5779 5777 5774 5773 5770 5769 5769 5767 5766 5765 5765 5764 5763 5762 5762 5760 5759 5757 5755 5754 5751 5750
5738 5742 5747 5751 5756 5760 5762 5765 5767 5769 5771 5773 5774 5775 5775 5776 5777 5778 5778 5778 5777 5777 5775 5775 5774 5772 5770 5769 5767 5765 5763 5761 5760 5759 5759 5758 5756 5756 5755 5754 5752 5751 5749 5747 5745 5743 5739
5727 5731 5737 5741 5746 5750 5754 5756 5758 5760 5763 5765 5766 5767 5768 5769 5769 5770 5770 5770 5770 5771 5768 5768 5766 5764 5763 5762 5759 5758 5756 5755 5753 5752 5751 5750 5750 5749 5748 5747 5745 5743 5742 5739 5737 5735 5733
5716 5720 5727 5731 5736 5740 5745 5747 5750 5753 5754 5756 5758 5758 5758 5760 5762 5762 5762 5763 5764 5762 5762 5761 5759 5757 5755 5754 5752 5750 5749 5747 5747 5745 5744 5743 5742 5741 5741 5739 5737 5735 5732 5729 5726 5725 5723
5707 5710 5716 5721 5725 5730 5735 5738 5741 5743 5745 5746 5748 5750 5750 5751 5752 5753 5754 5756 5755 5754 5753 5753 5752 5750 5748 5746 5745 5743 5742 5741 5739 5738 5737 5736 5736 5734 5732 5731 5728 5726 5724 5721 5715 5713 5711
5695 5700 5706 5710 5715 5719 5724 5728 5731 5733 5735 5736 5739 5739 5741 5742 5743 5745 5746 5746 5747 5747 5746 5745 5744 5742 5742 5739 5739 5737 5736 5734 5732 5731 5731 5728 5727 5726 5724 5722 5720 5717 5715 5712 5708 5706 5703
5683 5690 5695 5700 5705 5709 5714 5717 5721 5724 5724 5725 5727 5729 5731 5733 5734 5736 5737 5738 5737 5738 5737 5737 5735 5734 5733 5732 5731 5730 5728 5726 5724 5723 5721 5719 5718 5717 5716 5714 5711 5708 5705 5702 5698 5695 5693
5669 5677 5683 5689 5693 5698 5703 5706 5710 5714 5714 5714 5717 5718 5721 5724 5725 5727 5728 5729 5728 5728 5728 5728 5726 5726 5725 5724 5723 5721 5720 5719 5717 5715 5714 5712 5711 5710 5707 5704 5702 5699 5695 5692 5689 5686 5680
5655 5662 5670 5676 5682 5688 5693 5695 5699 5703 5705 5706 5706 5708 5712 5714 5717 5717 5719 5719 5720 5720 5720 5719 5718 5718 5717 5716 5715 5714 5712 5711 5710 5707 5706 5703 5701 5699 5698 5696 5692 5689 5685 5681 5678 5675 5669
5648 5650 5656 5664 5671 5677 5682 5685 5688 5692 5695 5697 5697 5699 5700 5704 5706 5707 5709 5710 5710 5711 5711 5711 5711 5709 5708 5707 5707 5706 5705 5704 5702 5700 5698 5696 5694 5691 5689 5687 5682 5678 5673 5669 5665 5661 5659
5638 5640 5643 5651 5659 5665 5671 5674 5678 5682 5684 5686 5689 5691 5692 5695 5697 5698 5699 5701 5701 5703 5702 5703 5703 5702 5700 5700 5699 5698 5698 5695 5693 5691 5688 5686 5685 5682 5680 5676 5672 5666 5660 5656 5651 5647 5643
5627 5631 5635 5641 5645 5653 5658 5663 5668 5670 5674 5677 5678 5680 5685 5686 5688 5689 5689 5692 5693 5693 5694 5695 5695 5694 5693 5692 5690 5690 5688 5686 5684 5682 5678 5676 5675 5672 5669 5667 5662 5656 5651 5645 5640 5634 5629
5618 5622 5625 5631 5637 5640 5645 5650 5656 5659 5662 5665 5668 5671 5673 5677 5677 5679 5680 5683 5683 5684 5685 5686 5686 5686 5685 5683 5682 5682 5680 5678 5675 5672 5669 5666 5663 5661 5659 5657 5651 5647 5642 5635 5630 5624 5616
5608 5611 5614 5620 5625 5630 5635 5641 5644 5647 5651 5652 5655 5660 5662 5666 5668 5670 5673 5673 5674 5676 5678 5677 5677 5677 5675 5675 5673 5672 5670 5668 5665 5662 5658 5655 5651 5648 5647 5644 5639 5637 5631 5625 5619 5612 5603
5597 5602 5606 5610 5616 5621 5625 5628 5631 5634 5639 5644 5647 5650 5652 5657 5658 5661 5663 5666 5667 5669 5669 5668 5667 5666 5667 5665 5664 5663 5661 5658 5654 5651 5648 5644 5639 5634 5632 5629 5627 5622 5617 5612 5607 5601 5590
5589 5592 5597 5602 5607 5611 5616 5621 5623 5627 5631 5635 5637 5641 5646 5650 5653 5655 5657 5661 5660 5661 5659 5659 5659 5658 5657 5655 5654 5652 5651 5648 5644 5641 5637 5632 5626 5619 5616 5614 5612 5612 5604 5596 5588 5591 5576
5581 5584 5588 5591 5596 5600 5605 5610 5613 5618 5622 5625 5630 5634 5639 5644 5649 5651 5650 5652 5651 5653 5652 5650 5649 5649 5648 5646 5644 5642 5641 5638 5633 5630 5626 5619 5612 5607 5601 5595 5592 5594 5587 5578 5569 5569 5560
5570 5575 5583 5583 5586 5591 5595 5601 5607 5611 5616 5622 5625 5630 5633 5636 5640 5642 5641 5642 5642 5644 5644 5642 5641 5639 5637 5636 5633 5631 5629 5626 5622 5617 5612 5605 5599 5593 5585 5576 5580 5574 5564 5558 5553 5547 5541
5562 5567 5573 5578 5582 5587 5592 5597 5603 5608 5612 5616 5621 5624 5627 5629 5632 5633 5633 5632 5633 5635 5635 5634 5632 5630 5626 5625 5621 5619 5617 5613 5609 5605 5599 5594 5585 5581 5571 5563 5558 5556 5547 5541 5534 5526 5519
5554 5559 5564 5570 5577 5583 5589 5592 5598 5603 5606 5611 5614 5618 5620 5622 5625 5625 5624 5625 5625 5626 5626 5624 5621 5618 5615 5612 5611 5606 5603 5599 5596 5591 5586 5579 5574 5565 5560 5551 5540 5532 5527 5520 5513 5505 5498
Wind_Speed
17 16 16 15 14 14 13 14 15 15 13 12 9 8 9 11 14 16 16 16 16 15 15 14 11 11 11 9 9 9 9 7 7 7 7 8 10 10 10 10 11 12 15 17 18 19 19
20 19 19 17 17 16 15 14 14 16 16 15 14 11 10 11 12 15 16 15 15 15 15 14 14 13 12 12 11 11 11 11 10 9 9 10 11 12 12 13 13 14 15 16 17 20 22
21 20 20 19 20 18 18 17 16 15 13 12 13 13 12 12 11 12 14 15 15 15 16 17 17 15 14 13 14 14 14 13 13 13 12 12 12 13 13 14 14 16 17 18 19 20 21
26 24 23 21 20 20 20 19 18 16 13 13 13 12 13 13 12 12 14 15 15 16 16 18 19 20 18 18 16 16 15 16 16 17 16 15 15 15 16 17 17 19 20 21 22 23 24
31 29 27 25 23 21 21 22 21 19 18 16 14 14 14 13 13 14 15 16 17 17 17 18 20 22 21 21 20 18 17 17 17 19 20 20 20 19 20 20 21 21 22 23 25 27 28
35 33 31 29 27 24 23 22 23 22 21 20 18 16 17 17 18 18 18 18 19 19 19 22 24 23 24 23 23 22 22 21 20 20 21 23 24 25 25 25 25 26 26 27 29 28 30
38 36 34 33 31 28 26 25 24 23 22 21 20 20 20 20 22 24 24 23 22 24 27 27 25 26 25 24 25 25 24 24 23 22 21 23 25 27 28 29 30 30 31 31 33 33 34
42 40 37 35 34 31 29 28 27 25 24 23 23 23 24 25 25 24 24 25 26 24 26 25 26 27 27 26 25 25 26 25 25 25 25 25 26 28 30 31 32 33 33 34 36 38 38
47 43 41 39 36 34 32 30 28 28 27 27 27 27 28 28 28 27 27 27 26 27 27 27 27 28 25 24 24 24 24 25 25 26 27 27 27 28 29 31 33 34 36 37 40 41 42
48 47 45 43 40 37 36 33 32 30 29 29 30 31 32 32 30 30 29 28 28 28 30 30 28 25 27 28 26 25 24 24 26 26 27 27 28 28 29 30 32 33 36 39 41 43 46
47 47 45 47 43 41 40 37 35 34 33 35 36 36 37 35 34 33 32 31 30 30 31 29 28 30 31 32 31 28 27 26 27 27 28 29 29 30 31 33 34 36 38 41 43 46 49
49 50 47 45 45 43 42 39 39 37 36 33 35 38 41 41 39 37 35 32 30 30 35 33 32 31 32 33 33 33 32 31 30 29 30 31 31 31 32 33 35 37 39 42 45 48 51
48 49 48 47 43 42 45 40 39 40 38 36 36 37 38 38 38 35 33 31 32 33 34 34 33 35 36 34 33 33 34 33 32 31 30 31 31 32 32 33 36 38 40 43 47 46 48
49 50 47 49 47 45 45 42 39 41 40 38 39 40 41 38 37 34 33 33 35 36 34 34 36 38 37 35 34 34 33 32 32 31 31 30 29 30 32 33 34 35 36 39 44 46 49
50 56 53 46 46 44 45 44 44 43 44 43 41 42 43 39 35 36 36 36 36 35 36 37 38 38 36 35 34 33 32 31 30 30 31 34 33 31 30 31 33 35 37 39 43 46 50
56 53 50 49 47 47 48 42 44 47 47 47 45 43 43 39 37 37 36 37 38 39 39 39 37 37 34 32 31 31 32 33 32 31 29 31 33 32 32 34 35 36 37 39 42 45 48
63 53 56 54 48 50 50 48 46 45 43 47 44 43 43 40 41 41 40 42 41 41 40 39 37 34 32 31 31 32 32 31 29 30 31 32 32 33 34 32 33 34 35 37 40 42 47
42 58 56 48 45 41 42 44 45 42 43 44 44 45 43 44 45 44 42 42 42 40 39 37 35 33 33 32 31 30 31 31 31 32 32 33 34 32 31 31 32 35 36 38 39 41 44
31 34 50 53 45 47 47 45 45 43 44 45 46 47 45 47 46 43 42 42 40 34 33 32 30 29 30 29 31 30 31 32 33 33 33 33 32 33 33 34 36 36 37 39 40 42 42
38 32 37 47 46 47 46 45 46 43 43 46 49 47 48 47 45 42 39 39 33 31 35 30 26 28 30 30 31 33 32 31 31 31 33 35 31 32 35 36 37 40 42 42 43 44 46
40 36 39 49 44 53 47 46 45 45 46 46 45 47 46 47 43 49 46 34 33 35 33 29 29 30 32 32 32 32 32 32 32 32 33 33 33 34 36 37 38 42 43 45 46 47 52
40 40 45 49 48 49 59 52 46 45 45 45 47 41 46 46 41 42 40 30 31 32 29 28 31 32 32 32 33 33 32 32 33 32 34 35 37 38 39 38 43 46 46 48 51 53 55
43 39 41 48 52 53 55 50 51 53 51 53 54 53 47 43 38 32 29 31 33 31 27 27 30 31 31 31 32 33 33 33 35 36 37 39 41 44 43 45 48 48 50 53 52 54 58
40 37 37 44 49 53 59 54 56 55 53 51 50 52 43 40 29 23 24 21 24 28 29 29 31 31 30 32 33 34 35 36 37 40 42 44 45 50 53 53 54 56 56 56 56 57 61
40 34 39 48 50 51 57 56 59 53 54 58 41 32 25 25 22 23 26 29 29 30 29 30 30 31 32 33 34 37 37 39 41 44 46 48 51 54 57 58 60 58 59 60 62 61 65
40 30 38 48 52 50 50 52 56 59 38 32 28 21 16 23 25 27 27 31 30 29 29 29 31 32 33 35 37 39 40 43 46 49 51 53 56 57 59 62 65 63 61 63 66 67 69
36 30 29 30 38 36 31 24 24 21 19 20 20 21 21 25 28 31 31 30 29 29 29 30 32 33 35 37 40 42 45 47 49 52 54 55 58 61 63 67 66 65 67 69 70 73 72
35 31 32 23 23 28 26 26 19 23 26 22 24 27 28 29 30 30 30 29 28 30 31 32 34 35 39 41 44 47 50 51 54 55 57 58 62 63 66 68 69 66 69 72 73 74 75
38 34 32 28 27 26 30 30 29 25 24 25 28 29 29 29 29 29 28 30 30 32 34 36 39 41 44 46 49 52 54 56 57 60 60 62 63 64 65 66 68 70 72 74 76 76 76
Wind_Direction
253 254 254 254 259 265 267 271 279 288 292 300 307 315 324 331 336 338 346 349 350 349 349 356 354 344 332 327 318 320 316 313 301 292 282 263 263 270 273 269 266 264 254 247 244 242 246
253 254 256 259 261 263 270 273 277 283 292 297 309 311 319 324 327 327 330 337 344 347 345 342 342 347 340 327 319 308 301 301 302 290 280 275 271 272 271 268 269 267 268 266 263 259 257
254 256 259 258 260 262 265 269 276 280 288 294 306 306 310 317 326 327 329 332 334 336 339 338 335 330 327 330 320 307 297 294 290 289 285 281 277 277 274 274 273 268 266 262 263 263 259
251 254 257 259 260 260 262 266 270 272 272 283 293 295 297 303 312 321 327 329 329 331 332 331 329 326 322 317 314 311 305 294 288 284 280 278 276 277 276 275 273 271 270 269 266 263 262
251 252 255 257 259 260 262 264 266 268 267 273 282 285 289 292 300 308 315 317 319 321 324 326 325 318 315 311 308 304 300 300 295 282 277 275 276 275 275 276 278 276 274 271 268 266 265
251 252 255 257 259 260 263 263 266 269 268 270 273 285 287 288 291 300 303 308 313 314 315 317 321 318 313 305 302 298 295 295 293 290 278 272 275 275 276 278 277 276 277 275 272 270 270
248 251 253 255 257 259 260 262 264 268 272 269 271 279 285 291 291 292 295 300 301 304 306 309 312 317 313 305 297 296 293 290 289 285 282 277 275 276 277 278 279 279 277 277 278 278 274
247 249 252 253 255 258 260 261 262 264 266 268 271 275 280 285 289 290 292 291 292 299 309 305 308 318 318 310 301 294 289 287 286 285 283 281 278 276 275 277 279 281 281 280 279 279 278
244 245 249 251 253 256 259 260 261 262 266 269 270 274 278 282 286 289 288 290 293 297 302 306 305 314 318 316 311 302 293 288 286 285 284 282 279 277 276 275 276 278 279 281 282 282 282
243 241 247 250 249 252 256 260 262 262 265 269 273 274 276 280 282 286 288 290 291 295 297 302 305 307 314 317 309 303 296 291 287 285 283 283 282 281 280 279 279 279 280 280 280 281 282
244 246 247 248 250 252 255 256 259 263 270 273 271 274 277 278 280 282 284 285 286 297 297 300 302 304 309 312 313 303 294 289 287 286 285 284 282 281 280 281 281 281 281 282 283 284 284
247 251 249 248 248 255 253 252 255 258 267 273 274 275 275 277 279 280 280 279 283 288 293 295 298 301 302 305 305 302 293 290 288 286 285 284 285 285 285 286 288 289 290 290 289 290 291
247 249 247 244 247 250 252 253 255 260 261 270 273 276 275 277 279 277 275 277 282 285 290 290 295 297 300 298 297 295 293 291 289 288 287 287 289 290 292 292 292 293 293 294 293 294 293
243 247 247 241 246 243 248 255 259 258 263 267 271 275 273 274 275 274 273 278 279 284 285 288 293 295 296 294 293 292 292 291 291 291 291 292 292 294 295 296 296 296 295 296 296 297 296
243 242 241 243 244 244 246 255 257 261 266 268 270 271 271 271 272 273 273 275 277 281 284 289 292 293 293 291 291 292 291 290 290 292 292 294 293 294 294 294 294 297 298 298 298 297 299
226 228 230 234 241 246 252 256 262 262 263 268 268 266 266 266 270 272 274 274 274 277 282 286 287 289 287 287 288 289 290 288 288 289 290 291 291 294 296 298 300 302 303 304 304 305 307
233 239 243 243 248 249 254 263 261 257 258 262 260 258 262 265 270 272 275 274 273 274 280 283 284 284 284 286 289 289 287 285 287 288 289 290 291 295 298 301 303 304 305 303 304 307 308
249 235 235 242 246 244 250 245 251 250 247 246 247 258 262 263 268 271 271 270 272 273 277 277 278 282 282 284 286 286 284 285 288 288 290 291 295 299 300 303 305 306 304 303 305 309 310
261 263 239 234 236 233 235 244 249 241 238 235 242 250 254 258 265 266 266 266 268 270 267 272 279 278 279 280 283 282 286 290 291 293 296 297 299 299 299 303 304 307 305 307 310 310 314
267 260 234 226 227 233 238 240 236 239 233 237 238 240 248 257 262 260 257 260 261 260 267 272 272 277 277 281 282 285 289 288 289 292 293 294 297 299 301 302 306 308 308 308 307 307 305
269 268 228 219 224 226 228 226 236 230 233 233 237 242 245 250 251 251 257 252 252 259 265 267 273 277 279 280 280 285 286 287 290 292 292 294 297 298 298 298 301 304 304 302 303 302 303
257 272 237 229 227 220 220 223 225 228 220 225 226 230 235 238 242 245 251 247 251 260 262 268 273 276 277 278 281 283 284 286 290 291 292 293 296 294 295 295 296 301 301 301 304 304 303
254 257 252 226 223 220 222 217 218 225 223 221 225 230 234 240 241 239 244 249 251 260 267 272 272 275 276 277 280 282 284 287 291 292 292 292 292 290 293 291 290 294 293 299 301 302 302
250 253 260 235 227 219 215 213 214 221 219 224 228 232 238 241 249 255 255 265 269 265 266 267 269 273 275 279 282 284 287 291 290 291 291 292 295 294 293 293 293 294 296 299 298 295 297
241 247 252 220 224 226 225 224 224 226 228 234 236 240 237 240 245 256 264 261 262 262 264 269 273 274 278 281 285 286 289 290 290 290 291 295 296 297 296 294 292 294 299 301 299 296 296
234 234 237 219 217 220 224 229 231 229 219 219 223 226 239 247 250 253 257 259 261 265 268 271 273 277 279 281 285 287 290 291 291 291 292 294 294 296 299 299 299 301 304 300 297 297 296
225 224 218 206 200 200 202 207 210 199 212 225 229 234 241 247 246 249 253 259 263 267 270 272 275 279 282 284 285 288 287 288 289 290 294 297 300 301 301 300 302 306 302 301 301 301 301
212 214 215 225 212 205 207 203 206 217 221 219 229 237 240 242 246 251 255 259 264 268 270 274 277 279 279 283 285 287 287 289 292 294 298 300 301 302 300 302 304 302 300 300 301 300 300
207 211 218 224 212 205 213 209 210 218 224 231 235 236 241 247 252 255 258 261 266 271 275 277 278 281 284 285 287 288 293 294 298 298 300 300 299 299 300 301 302 301 301 301 301 301 300